This demonstration page uses our WeatherBlox Daily Observations layout. Learn more.

Left ArrowRight Arrow

Hourly Observations for May 5, 2018

Temp ( °F °C ) Dew Point ( °F °C ) Humidity (%) Winds ( mph kmh ) Pressure ( in mb ) Visibility ( mi km ) Precip ( " mm )
12:15 am 00:15 Clear 56 13.5 38 3.6 51 51 SSW 6 9 30.12 1020 10 16 N/A
12:35 am 00:35 Clear 57 13.7 38 3.3 50 50 S 6 9 30.12 1020 10 16 N/A
12:55 am 00:55 Clear 55 12.7 38 3.1 52 52 SSW 6 9 30.12 1020 10 16 N/A
1:15 am 01:15 Clear 54 12 38 3.1 55 55 SSW 5 7 30.12 1020 10 16 N/A
1:35 am 01:35 Clear 55 12.7 38 3.1 52 52 N N/A 30.12 1020 10 16 N/A
1:55 am 01:55 Clear 52 11 37 3 58 58 SSW 3 6 30.12 1020 10 16 N/A
2:15 am 02:15 Clear 53 11.5 37 3 56 56 N N/A 30.12 1020 10 16 N/A
2:35 am 02:35 Clear 52 11.1 38 3.2 59 59 N N/A 30.12 1020 10 16 N/A
2:55 am 02:55 Clear 50 9.8 38 3.1 63 63 N N/A 30.15 1021 10 16 N/A
3:15 am 03:15 Clear 51 10.4 38 3.2 61 61 W 3 6 30.12 1020 10 16 N/A
3:35 am 03:35 Clear 53 11.7 38 3.1 56 56 WSW 3 6 30.12 1020 10 16 N/A
3:55 am 03:55 Clear 53 11.9 38 3.2 56 56 WSW 7 11 30.12 1020 10 16 N/A
4:15 am 04:15 Clear 54 12.4 39 3.8 56 56 SW 5 7 30.12 1020 10 16 N/A
4:35 am 04:35 Clear 53 11.5 38 3.6 59 59 WSW 6 9 30.12 1020 10 16 N/A
4:55 am 04:55 Clear 53 11.5 38 3.6 59 59 WSW 7 11 30.12 1020 10 16 N/A
5:15 am 05:15 Clear 53 11.7 39 3.7 58 58 W 8 13 30.12 1020 10 16 N/A
5:35 am 05:35 Clear 53 11.5 39 3.7 59 59 W 8 13 30.12 1020 10 16 N/A
5:55 am 05:55 Clear 53 11.5 38 3.6 59 59 W 9 15 30.12 1020 10 16 N/A
6:15 am 06:15 Clear 53 11.4 38 3.6 59 59 W 10 17 30.12 1020 10 16 N/A
6:35 am 06:35 Sunny 53 11.5 38 3.5 58 58 W 10 17 30.12 1020 10 16 N/A
6:55 am 06:55 Sunny 52 11.3 39 3.7 60 60 W 8 13 30.12 1020 10 16 N/A
7:15 am 07:15 Sunny 53 11.7 39 4 59 59 W 10 17 30.12 1020 10 16 N/A
7:35 am 07:35 Sunny 56 13.3 40 4.2 54 54 W 12 19 30.12 1020 10 16 N/A
7:55 am 07:55 Sunny 57 14 40 4.4 53 53 W 12 19 30.09 1019 10 16 N/A
8:15 am 08:15 Sunny 59 15.1 41 4.8 50 50 W 13 20 30.09 1019 10 16 N/A
8:35 am 08:35 Sunny 63 17.1 41 5 45 45 W 12 19 30.09 1019 10 16 N/A
8:55 am 08:55 Sunny 66 18.9 41 5.1 40 40 W 14 22 30.06 1018 10 16 N/A
9:15 am 09:15 Sunny 69 20.5 41 5.1 37 37 W 13 20 30.06 1018 10 16 N/A
9:35 am 09:35 Sunny 70 21 41 5.1 35 35 W 15 24 30.03 1017 10 16 N/A
9:55 am 09:55 Sunny 72 22.3 41 4.9 32 32 W 14 22 30.03 1017 10 16 N/A
10:15 am 10:15 Sunny 73 23 41 4.9 31 31 W 16 26 30.03 1017 10 16 N/A
10:35 am 10:35 Partly Cloudy 75 24 42 5.5 30 30 W 13 20 30.03 1017 10 16 N/A
10:55 am 10:55 Sunny 76 24.6 41 5 28 28 WSW 14 22 30.00 1016 10 16 N/A
11:15 am 11:15 Sunny 77 25 41 5 28 28 WSW 13 20 30.00 1016 10 16 N/A
11:35 am 11:35 Sunny 77 25.1 41 5.1 28 28 W 12 19 29.97 1015 10 16 N/A
11:55 am 11:55 Sunny 79 25.9 42 5.6 27 27 SW 8 13 29.97 1015 10 16 N/A
12:15 pm 12:15 Sunny 79 25.9 40 4.3 25 25 W 14 22 29.97 1015 10 16 N/A
12:35 pm 12:35 Sunny 79 25.9 39 3.9 24 24 W 9 15 29.97 1015 10 16 N/A
12:55 pm 12:55 Sunny 80 26.8 40 4.7 24 24 WSW 10 17 29.97 1015 10 16 N/A
1:15 pm 13:15 Sunny 80 26.6 40 4.4 24 24 WSW 9 15 29.94 1014 10 16 N/A
1:35 pm 13:35 Sunny 81 27.3 40 4.6 23 23 SSW 12 19 29.94 1014 10 16 N/A
1:55 pm 13:55 Sunny 82 27.5 42 5.3 24 24 SW 8 13 29.91 1013 10 16 N/A
2:15 pm 14:15 Sunny 82 27.7 41 4.8 23 23 SW 6 9 29.91 1013 10 16 N/A
2:35 pm 14:35 Sunny 81 27.4 40 4.2 23 23 WSW 3 6 29.91 1013 10 16 N/A
2:55 pm 14:55 Sunny 82 27.8 39 3.7 21 21 SSW 7 11 29.88 1012 10 16 N/A
3:15 pm 15:15 Sunny 83 28.3 39 4.1 21 21 W 7 11 29.88 1012 10 16 N/A
3:35 pm 15:35 Partly Cloudy 82 27.5 38 3.6 22 22 N N/A 29.88 1012 10 16 N/A
3:55 pm 15:55 Partly Cloudy 83 28.4 39 4.1 21 21 WSW 10 17 29.88 1012 10 16 N/A
4:15 pm 16:15 Partly Cloudy 84 28.8 39 4.1 21 21 WNW 10 17 29.85 1011 10 16 N/A
4:35 pm 16:35 Mostly Cloudy 84 28.9 41 4.8 22 22 WSW 6 9 29.85 1011 10 16 N/A
4:55 pm 16:55 Partly Cloudy 82 27.5 38 3.5 21 21 W 9 15 29.85 1011 10 16 N/A
5:15 pm 17:15 Mostly Cloudy 81 27 39 3.7 22 22 N 12 19 29.85 1011 10 16 N/A
5:35 pm 17:35 Mostly Cloudy 78 25.5 41 5.2 27 27 ENE 13 20 29.91 1013 10 16 N/A
5:55 pm 17:55 Partly Cloudy 80 26.5 41 5.2 26 26 N N/A 29.91 1013 10 16 N/A
6:15 pm 18:15 Sunny 80 26.7 41 5.2 25 25 S 3 6 29.88 1012 10 16 N/A
6:35 pm 18:35 Sunny 81 27 40 4.6 24 24 N N/A 29.85 1011 10 16 N/A
6:55 pm 18:55 Sunny 81 27 40 4.4 23 23 N N/A 29.85 1011 10 16 N/A
7:15 pm 19:15 Sunny 81 27.1 40 4.4 23 23 NW 6 9 29.85 1011 10 16 N/A
7:35 pm 19:35 Sunny 80 26.7 39 4 23 23 NNW 5 7 29.88 1012 10 16 N/A
7:55 pm 19:55 Sunny 78 25.5 41 4.8 26 26 NNE 7 11 29.88 1012 10 16 N/A
8:15 pm 20:15 Sunny 75 23.9 41 5 29 29 NE 10 17 29.91 1013 10 16 N/A
8:35 pm 20:35 Sunny 72 22.1 41 5.2 33 33 ENE 7 11 29.94 1014 10 16 N/A
8:55 pm 20:55 Clear 69 20.4 41 5.2 37 37 E 7 11 29.94 1014 10 16 N/A
9:15 pm 21:15 Clear 67 19.5 41 4.9 38 38 ESE 9 15 29.97 1015 10 16 N/A
9:35 pm 21:35 Clear 62 16.7 40 4.4 44 44 ESE 7 11 29.97 1015 10 16 N/A
9:55 pm 21:55 Clear 60 15.8 41 4.9 49 49 SE 7 11 30.03 1017 7 11 N/A
10:15 pm 22:15 Clear 63 17.4 41 4.9 44 44 SSE 3 6 30.00 1016 10 16 N/A
10:35 pm 22:35 Clear 64 18 40 4.6 41 41 S 5 7 30.00 1016 10 16 N/A
10:55 pm 22:55 Clear 60 15.5 41 5.2 51 51 N 6 9 30.03 1017 10 16 N/A
11:15 pm 23:15 Clear 61 16.2 41 5.1 48 48 NE 3 6 30.03 1017 10 16 N/A
11:35 pm 23:35 Clear 59 14.9 41 4.9 51 51 N N/A 30.03 1017 10 16 N/A
11:55 pm 23:55 Clear 59 14.9 41 5.1 52 52 N N/A 30.03 1017 10 16 N/A

Powered by AerisWeather